Location: Haliburton Scout Reserve
(45.0900°N, 78.3200°W)
Time: 10:27:50
(UTC-04:00)

S-56A Canister/Altair - Pass Details

Date: 30 January 2023
Orbit: 638 x 2493 km, 38.9° (Epoch: 25 March)

Event Time Altitude Azimuth Distance (km) Brightness Sun altitude
Rises 16:50:51 0° 273° (W) 3,810 12.2 3.4°
Reaches altitude 10° 16:53:20 10° 266° (W) 3,063 12.0 3.0°
Maximum altitude 17:00:26 40° 199° (SSW) 2,088 10.3 1.9°
Drops below altitude 10° 17:10:41 10° 136° (SE) 4,415 11.2 0.3°
Sets 17:15:03 0° 130° (SE) 5,671 11.7 -0.4°
